Starlink 36262

operational
NORAD ID: 67201 Int'l Des: 2025-304 Owner: SPXS Country: US Constellation: starlink
LEOCIRCULAR

About Starlink 36262

Description loading...

Live Position

Loading 3D Globe...

Upcoming Passes

Altitude History

Altitude vs Time

uPlot chart will show altitude changes over time

Two-Line Element Set

1 67201C 25304K 25352.76437500 .00703130 00000+0 96852-3 0 3528
2 67201 69.9983 31.2813 0009129 254.9589 216.9134 16.05070349 15
Epoch: Dec 18, 2025 • Age: 56 hours

Current Status

Altitude 267.6 km
Velocity 7.75 km/s
Sub-Earth Point 57.14°N, 32.57°W
Launch Date Dec 17, 2025
Age 2 days
Type internet

Technical Details

Classification Payload
Mass 575.00 kg
Dry Mass 530.00 kg
Total Mass 575.00 kg
Length 0.30 m
Diameter 4.10 m
Span 29.00 m
Shape Box + pan
Manufacturer SPXS
Bus Type Starlink V2MO
Phase Status In Orbit
Owner/State SPXS/US

Large Constellations

Loading constellations...